User: anonymous   Login
Location: Unspecified
(0.0000°N, 0.0000°E)
Time: 15:56:45
(UTC+00:00)
Language:

TerraSAR-X - Orbit

View from above orbital plane
View from above orbital plane
View from above satellite
View from above satellite

Ground track
Ground track

The orbit data is extracted from the following two-line orbital elements,

1 31698U 07026A   18170.20903681 -.00001105  00000-0 -49431-4 0  9992
2 31698  97.4445 177.6303 0001976  83.4984  46.9239 15.19147211610594
Epoch (UTC): 19 June 2018 05:01:00
Eccentricity: 0.0001976
inclination: 97.4445°
perigee height: 507 km
apogee height: 510 km
right ascension of ascending node: 177.6303°
argument of perigee: 83.4984°
revolutions per day: 15.19147211
mean anomaly at epoch: 46.9239°
orbit number at epoch: 61059

The dashed part of the orbit path shows where the satellite is in the earth's shadow,  

DLR